AFR600 TFFR-TFFF

Flight info

Callsign AFR600
Flight time 0h 44m
Altitude 13000
Route KATIM2F KATIM KATIM2X
Aircraft A320/M-SDE2E3FGIJ1RWY/HB1

Departure

Time 2026-05-05 12:23
Airport Maryse Condé International Airport (TFFR)

Arrival

Time 2026-05-05 13:08
Airport Martinique Aimé Césaire International Airport (TFFF)
Time Latitude Longitude Altitude Speed Heading
2026-05-05 11:59 16.26951 -61.52960 26 ft 0 kts 149°
2026-05-05 12:14 16.26967 -61.52972 21 ft 4 kts 117°
2026-05-05 12:14 16.26967 -61.52987 22 ft 4 kts 31°
2026-05-05 12:14 16.26946 -61.53001 23 ft 4 kts 62°
2026-05-05 12:14 16.26941 -61.53007 22 ft 0 kts 137°
2026-05-05 12:18 16.26932 -61.52998 24 ft 5 kts 137°
2026-05-05 12:18 16.26903 -61.52960 21 ft 8 kts 123°
2026-05-05 12:18 16.26853 -61.52923 21 ft 11 kts 182°
2026-05-05 12:18 16.26778 -61.52941 21 ft 11 kts 194°
2026-05-05 12:19 16.26710 -61.52954 21 ft 9 kts 190°
2026-05-05 12:19 16.26649 -61.52966 21 ft 8 kts 191°
2026-05-05 12:19 16.26591 -61.52978 20 ft 9 kts 191°
2026-05-05 12:19 16.26529 -61.52993 20 ft 9 kts 210°
2026-05-05 12:20 16.26507 -61.53057 20 ft 14 kts 276°
2026-05-05 12:20 16.26538 -61.53230 19 ft 31 kts 281°
2026-05-05 12:20 16.26580 -61.53447 22 ft 29 kts 282°
2026-05-05 12:20 16.26614 -61.53643 23 ft 27 kts 280°
2026-05-05 12:21 16.26650 -61.53844 19 ft 30 kts 281°
2026-05-05 12:21 16.26690 -61.54060 18 ft 28 kts 280°
2026-05-05 12:21 16.26724 -61.54239 15 ft 24 kts 282°
2026-05-05 12:21 16.26736 -61.54348 14 ft 10 kts 250°
2026-05-05 12:22 16.26728 -61.54397 14 ft 2 kts 349°
2026-05-05 12:22 16.26743 -61.54383 14 ft 7 kts 63°
2026-05-05 12:22 16.26740 -61.54316 15 ft 0 kts 101°
2026-05-05 12:22 16.26737 -61.54301 16 ft 20 kts 101°
2026-05-05 12:23 16.26656 -61.53857 19 ft 99 kts 101°
2026-05-05 12:23 16.26483 -61.52934 51 ft 155 kts 102°
2026-05-05 12:23 16.26269 -61.51860 872 ft 147 kts 100°
2026-05-05 12:23 16.26051 -61.50806 1631 ft 151 kts 102°
2026-05-05 12:24 16.25834 -61.49706 2233 ft 166 kts 101°
2026-05-05 12:24 16.25603 -61.48466 2716 ft 186 kts 101°
2026-05-05 12:24 16.25343 -61.47024 3201 ft 214 kts 100°
2026-05-05 12:24 16.25061 -61.45416 3827 ft 238 kts 100°
2026-05-05 12:25 16.24760 -61.43644 4606 ft 256 kts 99°
2026-05-05 12:25 16.24224 -61.41884 5721 ft 258 kts 122°
2026-05-05 12:25 16.22869 -61.40662 6648 ft 269 kts 155°
2026-05-05 12:25 16.20971 -61.40386 7376 ft 286 kts 183°
2026-05-05 12:26 16.19004 -61.40758 8367 ft 288 kts 188°
2026-05-05 12:26 16.17024 -61.41159 9310 ft 292 kts 189°
2026-05-05 12:26 16.15026 -61.41479 10153 ft 297 kts 183°
2026-05-05 12:26 16.12871 -61.41578 10610 ft 318 kts 177°
2026-05-05 12:27 16.10630 -61.41546 11093 ft 333 kts 176°
2026-05-05 12:27 16.08297 -61.41463 11842 ft 338 kts 176°
2026-05-05 12:27 16.05927 -61.41380 12622 ft 343 kts 177°
2026-05-05 12:27 16.03523 -61.41317 12978 ft 346 kts 178°
2026-05-05 12:28 16.01114 -61.41277 13090 ft 343 kts 178°
2026-05-05 12:28 15.98788 -61.41256 13111 ft 329 kts 179°
2026-05-05 12:28 15.96480 -61.41241 13115 ft 326 kts 178°
2026-05-05 12:28 15.94247 -61.41222 13117 ft 325 kts 179°
2026-05-05 12:29 15.91989 -61.41197 13120 ft 325 kts 178°
2026-05-05 12:29 15.89729 -61.41168 13120 ft 324 kts 178°
2026-05-05 12:29 15.87472 -61.41140 13119 ft 325 kts 178°
2026-05-05 12:29 15.85213 -61.41113 13123 ft 325 kts 178°
2026-05-05 12:30 15.82957 -61.41084 13123 ft 324 kts 178°
2026-05-05 12:30 15.80699 -61.41056 13125 ft 324 kts 178°
2026-05-05 12:30 15.78443 -61.41029 13127 ft 325 kts 178°
2026-05-05 12:30 15.76186 -61.41003 13142 ft 325 kts 178°
2026-05-05 12:31 15.73926 -61.40976 13134 ft 325 kts 179°
2026-05-05 12:31 15.71667 -61.40948 13144 ft 325 kts 178°
2026-05-05 12:31 15.69408 -61.40920 13139 ft 325 kts 178°
2026-05-05 12:31 15.67148 -61.40891 13146 ft 325 kts 177°
2026-05-05 12:32 15.64885 -61.40863 13153 ft 325 kts 177°
2026-05-05 12:32 15.62627 -61.40837 13145 ft 325 kts 178°
2026-05-05 12:32 15.60365 -61.40812 13147 ft 325 kts 178°
2026-05-05 12:32 15.58105 -61.40786 13146 ft 325 kts 177°
2026-05-05 12:33 15.55847 -61.40758 13154 ft 325 kts 177°
2026-05-05 12:33 15.53587 -61.40727 13151 ft 325 kts 178°
2026-05-05 12:33 15.51330 -61.40697 13150 ft 325 kts 178°
2026-05-05 12:33 15.49069 -61.40669 13144 ft 325 kts 177°
2026-05-05 12:34 15.46808 -61.40643 13098 ft 325 kts 177°
2026-05-05 12:34 15.44547 -61.40616 13106 ft 325 kts 178°
2026-05-05 12:34 15.42285 -61.40590 13101 ft 325 kts 178°
2026-05-05 12:34 15.40025 -61.40560 13095 ft 325 kts 176°
2026-05-05 12:35 15.37794 -61.40263 13104 ft 323 kts 168°
2026-05-05 12:35 15.35580 -61.39851 13097 ft 323 kts 168°
2026-05-05 12:35 15.33367 -61.39441 13100 ft 323 kts 168°
2026-05-05 12:35 15.31149 -61.39032 13099 ft 324 kts 168°
2026-05-05 12:36 15.28961 -61.38631 13098 ft 324 kts 168°
2026-05-05 12:36 15.26744 -61.38222 13099 ft 324 kts 168°
2026-05-05 12:36 15.24529 -61.37813 13101 ft 324 kts 168°
2026-05-05 12:36 15.22313 -61.37404 13104 ft 324 kts 168°
2026-05-05 12:37 15.20098 -61.36996 13107 ft 323 kts 168°
2026-05-05 12:37 15.17883 -61.36590 13108 ft 323 kts 167°
2026-05-05 12:37 15.15668 -61.36186 13110 ft 323 kts 168°
2026-05-05 12:37 15.13451 -61.35781 13112 ft 323 kts 168°
2026-05-05 12:38 15.11237 -61.35375 13119 ft 323 kts 168°
2026-05-05 12:38 15.09020 -61.34969 13116 ft 323 kts 168°
2026-05-05 12:38 15.06809 -61.34563 13119 ft 323 kts 168°
2026-05-05 12:38 15.04599 -61.34159 13123 ft 323 kts 168°
2026-05-05 12:39 15.02387 -61.33754 13129 ft 323 kts 168°
2026-05-05 12:39 15.00177 -61.33349 13106 ft 322 kts 168°
2026-05-05 12:39 14.97990 -61.32947 12864 ft 316 kts 168°
2026-05-05 12:39 14.95844 -61.32554 12546 ft 312 kts 168°
2026-05-05 12:40 14.93715 -61.32164 12192 ft 310 kts 168°
2026-05-05 12:40 14.91600 -61.31777 11815 ft 308 kts 168°
2026-05-05 12:40 14.89500 -61.31391 11514 ft 304 kts 168°
2026-05-05 12:40 14.87429 -61.31011 11213 ft 301 kts 167°
2026-05-05 12:41 14.85379 -61.30633 10874 ft 299 kts 167°
2026-05-05 12:41 14.83336 -61.30266 10525 ft 297 kts 169°
2026-05-05 12:41 14.81286 -61.30003 10181 ft 296 kts 172°
2026-05-05 12:41 14.79237 -61.29815 9810 ft 295 kts 173°
2026-05-05 12:42 14.77196 -61.29653 9445 ft 293 kts 173°
2026-05-05 12:42 14.75172 -61.29496 9088 ft 290 kts 173°
2026-05-05 12:42 14.73168 -61.29333 8725 ft 288 kts 173°
2026-05-05 12:42 14.71184 -61.29164 8373 ft 284 kts 172°
2026-05-05 12:43 14.69223 -61.28991 8007 ft 282 kts 173°
2026-05-05 12:43 14.67283 -61.28817 7658 ft 278 kts 172°
2026-05-05 12:43 14.65362 -61.28642 7271 ft 276 kts 172°
2026-05-05 12:43 14.63459 -61.28466 6915 ft 273 kts 172°
2026-05-05 12:44 14.61575 -61.28292 6546 ft 271 kts 172°
2026-05-05 12:44 14.59706 -61.28121 6158 ft 268 kts 172°
2026-05-05 12:44 14.57888 -61.27946 5894 ft 260 kts 169°
2026-05-05 12:44 14.56282 -61.27289 5745 ft 242 kts 139°
2026-05-05 12:45 14.55309 -61.25960 5638 ft 229 kts 110°
2026-05-05 12:45 14.55125 -61.24357 5508 ft 221 kts 85°
2026-05-05 12:45 14.55327 -61.22816 5387 ft 212 kts 84°
2026-05-05 12:45 14.55523 -61.21332 5258 ft 205 kts 84°
2026-05-05 12:46 14.55738 -61.19949 5164 ft 190 kts 83°
2026-05-05 12:46 14.55957 -61.18649 5045 ft 177 kts 82°
2026-05-05 12:46 14.56165 -61.17435 4918 ft 166 kts 83°
2026-05-05 12:46 14.56361 -61.16296 4794 ft 157 kts 83°
2026-05-05 12:47 14.56546 -61.15217 4670 ft 149 kts 83°
2026-05-05 12:47 14.56724 -61.14182 4541 ft 144 kts 83°
2026-05-05 12:47 14.56896 -61.13184 4412 ft 139 kts 83°
2026-05-05 12:47 14.57062 -61.12220 4295 ft 134 kts 83°
2026-05-05 12:48 14.57223 -61.11280 4122 ft 133 kts 82°
2026-05-05 12:48 14.57385 -61.10337 3953 ft 133 kts 82°
2026-05-05 12:48 14.57546 -61.09399 3784 ft 133 kts 83°
2026-05-05 12:48 14.57714 -61.08413 4019 ft 154 kts 82°
2026-05-05 12:49 14.57893 -61.07314 4788 ft 154 kts 83°
2026-05-05 12:49 14.58074 -61.06227 5499 ft 153 kts 83°
2026-05-05 12:49 14.58267 -61.05167 6234 ft 147 kts 83°
2026-05-05 12:49 14.58459 -61.04161 6931 ft 138 kts 82°
2026-05-05 12:50 14.58643 -61.03178 7432 ft 139 kts 82°
2026-05-05 12:50 14.58824 -61.02179 7229 ft 149 kts 83°
2026-05-05 12:50 14.59020 -61.01058 6775 ft 168 kts 83°
2026-05-05 12:50 14.59231 -60.99802 6217 ft 187 kts 83°
2026-05-05 12:51 14.59463 -60.98419 5517 ft 205 kts 83°
2026-05-05 12:51 14.59715 -60.96920 4825 ft 219 kts 82°
2026-05-05 12:51 14.59980 -60.95346 4397 ft 224 kts 82°
2026-05-05 12:51 14.60247 -60.93769 4115 ft 222 kts 82°
2026-05-05 12:52 14.60511 -60.92209 3777 ft 221 kts 82°
2026-05-05 12:52 14.60775 -60.90649 3474 ft 220 kts 82°
2026-05-05 12:52 14.61035 -60.89104 3202 ft 218 kts 81°
2026-05-05 12:52 14.61296 -60.87559 2927 ft 218 kts 81°
2026-05-05 12:53 14.61488 -60.86016 2634 ft 216 kts 93°
2026-05-05 12:53 14.61093 -60.84543 2343 ft 215 kts 118°
2026-05-05 12:53 14.60047 -60.83447 2111 ft 219 kts 146°
2026-05-05 12:53 14.58573 -60.83018 2003 ft 225 kts 173°
2026-05-05 12:54 14.55407 -60.82926 1994 ft 229 kts 175°
2026-05-05 12:54 14.53811 -60.82882 2000 ft 230 kts 174°
2026-05-05 12:54 14.52226 -60.82839 1994 ft 227 kts 175°
2026-05-05 12:55 14.50644 -60.82793 2003 ft 229 kts 174°
2026-05-05 12:55 14.49060 -60.82747 2001 ft 226 kts 174°
2026-05-05 12:55 14.47480 -60.82705 1993 ft 230 kts 176°
2026-05-05 12:55 14.45919 -60.83077 1992 ft 236 kts 206°
2026-05-05 12:56 14.44800 -60.84321 1995 ft 244 kts 244°
2026-05-05 12:56 14.44416 -60.85995 2010 ft 244 kts 261°
2026-05-05 12:56 14.44164 -60.87735 1999 ft 246 kts 261°
2026-05-05 12:56 14.43909 -60.89500 1994 ft 244 kts 261°
2026-05-05 12:57 14.43658 -60.91225 2046 ft 246 kts 261°
2026-05-05 12:57 14.43402 -60.92973 2285 ft 246 kts 261°
2026-05-05 12:57 14.43144 -60.94727 2543 ft 249 kts 261°
2026-05-05 12:57 14.42881 -60.96500 2784 ft 250 kts 260°
2026-05-05 12:58 14.42615 -60.98285 2959 ft 254 kts 261°
2026-05-05 12:58 14.42349 -61.00085 3000 ft 255 kts 261°
2026-05-05 12:58 14.42082 -61.01880 3003 ft 253 kts 261°
2026-05-05 12:58 14.41817 -61.03669 3006 ft 253 kts 261°
2026-05-05 12:59 14.41550 -61.05455 3005 ft 252 kts 260°
2026-05-05 12:59 14.41282 -61.07242 3007 ft 252 kts 260°
2026-05-05 12:59 14.41033 -61.09021 3002 ft 251 kts 265°
2026-05-05 13:00 14.41893 -61.12392 2604 ft 244 kts 310°
2026-05-05 13:00 14.43165 -61.13498 2293 ft 238 kts 334°
2026-05-05 13:01 14.47278 -61.15859 1999 ft 204 kts 335°
2026-05-05 13:01 14.48460 -61.16535 2017 ft 185 kts 335°
2026-05-05 13:01 14.49534 -61.17151 1998 ft 169 kts 335°
2026-05-05 13:01 14.50528 -61.17720 1993 ft 159 kts 336°
2026-05-05 13:02 14.51492 -61.18226 1997 ft 152 kts 346°
2026-05-05 13:02 14.52154 -61.18413 2000 ft 147 kts 357°
2026-05-05 13:02 14.53166 -61.18456 2002 ft 144 kts 11°
2026-05-05 13:02 14.54133 -61.18229 2010 ft 141 kts 26°
2026-05-05 13:03 14.54982 -61.17773 2008 ft 136 kts 40°
2026-05-05 13:03 14.55686 -61.17125 2006 ft 136 kts 53°
2026-05-05 13:03 14.56201 -61.16325 2009 ft 133 kts 70°
2026-05-05 13:03 14.56430 -61.15412 2012 ft 132 kts 78°
2026-05-05 13:04 14.56629 -61.14489 2006 ft 131 kts 80°
2026-05-05 13:04 14.56807 -61.13571 2007 ft 130 kts 81°
2026-05-05 13:04 14.56975 -61.12653 1980 ft 131 kts 80°
2026-05-05 13:04 14.57139 -61.11735 1854 ft 130 kts 81°
2026-05-05 13:05 14.57297 -61.10831 1694 ft 127 kts 82°
2026-05-05 13:05 14.57452 -61.09934 1541 ft 127 kts 80°
2026-05-05 13:05 14.57607 -61.09042 1369 ft 127 kts 81°
2026-05-05 13:05 14.57762 -61.08139 1207 ft 128 kts 82°
2026-05-05 13:06 14.57917 -61.07243 1056 ft 125 kts 81°
2026-05-05 13:06 14.58069 -61.06353 915 ft 126 kts 82°
2026-05-05 13:06 14.58234 -61.05465 783 ft 129 kts 81°
2026-05-05 13:06 14.58382 -61.04554 598 ft 124 kts 83°
2026-05-05 13:07 14.58527 -61.03660 358 ft 129 kts 80°
2026-05-05 13:07 14.58685 -61.02767 204 ft 128 kts 78°
2026-05-05 13:07 14.58842 -61.01860 59 ft 127 kts 78°
2026-05-05 13:07 14.58985 -61.01031 22 ft 99 kts 80°
2026-05-05 13:08 14.59080 -61.00510 15 ft 49 kts 81°
2026-05-05 13:08 14.59112 -61.00293 16 ft 25 kts 81°
2026-05-05 13:08 14.59139 -61.00129 17 ft 21 kts 79°
2026-05-05 13:08 14.59183 -61.00026 19 ft 14 kts 23°
2026-05-05 13:09 14.59277 -61.00037 20 ft 13 kts 349°
2026-05-05 13:09 14.59347 -61.00050 19 ft 11 kts 345°
2026-05-05 13:09 14.59385 -61.00120 18 ft 11 kts 295°
2026-05-05 13:09 14.59422 -61.00180 19 ft 9 kts 306°
2026-05-05 13:10 14.59447 -61.00211 19 ft 4 kts 311°
2026-05-05 13:10 14.59462 -61.00228 19 ft 6 kts 312°
2026-05-05 13:10 14.59516 -61.00273 19 ft 7 kts 326°
2026-05-05 13:10 14.59559 -61.00249 18 ft 10 kts 59°
2026-05-05 13:11 14.59574 -61.00223 19 ft 0 kts 60°
2026-05-05 13:11 14.59577 -61.00216 18 ft 4 kts 62°
2026-05-05 13:11 14.59579 -61.00212 19 ft 0 kts 62°